Time,TemperatureF,DewpointF,PressureIn,WindDirection,WindDirectionDegrees,WindSpeedMPH,WindSpeedGustMPH,Humidity,HourlyPrecipIn,Conditions,Clouds,dailyrainin,SoftwareType,DateUTC
2013-02-14 00:00:00,32.2,29.3,29.77,North,351,1.0,3.0,89,0.00,,,0.00,meteohub,2013-02-14 05:00:00,
2013-02-14 00:05:00,31.8,29.3,29.77,NNE,22,1.0,4.0,90,0.00,,,0.00,meteohub,2013-02-14 05:05:00,
2013-02-14 00:10:00,31.8,29.3,29.76,NNE,28,1.0,4.0,90,0.00,,,0.00,meteohub,2013-02-14 05:10:00,
2013-02-14 00:15:00,31.6,29.1,29.76,NNW,342,1.0,4.0,90,0.00,,,0.00,meteohub,2013-02-14 05:15:00,
2013-02-14 00:21:00,31.6,29.1,29.76,North,355,1.0,4.0,90,0.00,,,0.00,meteohub,2013-02-14 05:21:00,
2013-02-14 00:26:00,31.6,29.1,29.76,North,355,3.0,4.0,90,0.00,,,0.00,meteohub,2013-02-14 05:26:00,
2013-02-14 00:31:00,31.6,29.3,29.76,ENE,76,2.0,4.0,91,0.00,,,0.00,meteohub,2013-02-14 05:31:00,
2013-02-14 00:36:00,31.5,29.1,29.76,NNW,342,0.0,4.0,91,0.00,,,0.00,meteohub,2013-02-14 05:36:00,
2013-02-14 00:41:00,31.5,29.1,29.76,NNE,24,0.0,4.0,91,0.00,,,0.00,meteohub,2013-02-14 05:41:00,
2013-02-14 00:46:00,31.5,29.1,29.76,NNE,18,1.0,4.0,91,0.00,,,0.00,meteohub,2013-02-14 05:46:00,
2013-02-14 00:51:00,31.5,29.1,29.76,North,351,0.0,3.0,91,0.00,,,0.00,meteohub,2013-02-14 05:51:00,
2013-02-14 00:56:00,31.5,29.5,29.75,North,351,0.0,3.0,92,0.00,,,0.00,meteohub,2013-02-14 05:56:00,
2013-02-14 01:01:00,31.5,29.5,29.75,NNE,19,0.0,3.0,92,0.00,,,0.00,meteohub,2013-02-14 06:01:00,
2013-02-14 01:06:00,31.5,29.5,29.75,NNW,340,1.0,2.0,92,0.00,,,0.00,meteohub,2013-02-14 06:06:00,
2013-02-14 01:11:00,31.3,29.3,29.75,NNW,340,0.0,2.0,92,0.00,,,0.00,meteohub,2013-02-14 06:11:00,
2013-02-14 01:16:00,31.3,29.3,29.75,NNE,30,2.0,2.0,92,0.00,,,0.00,meteohub,2013-02-14 06:16:00,
2013-02-14 01:21:00,31.3,29.3,29.75,North,5,0.0,3.0,92,0.00,,,0.00,meteohub,2013-02-14 06:21:00,
2013-02-14 01:26:00,31.3,29.3,29.75,NE,34,0.0,3.0,92,0.00,,,0.00,meteohub,2013-02-14 06:26:00,
2013-02-14 01:31:00,31.3,28.9,29.75,NNE,33,0.0,3.0,91,0.00,,,0.00,meteohub,2013-02-14 06:31:00,
2013-02-14 01:36:00,31.1,28.8,29.75,NNW,339,1.0,3.0,91,0.00,,,0.00,meteohub,2013-02-14 06:36:00,
2013-02-14 01:41:00,31.1,28.8,29.75,NNW,339,0.0,2.0,91,0.00,,,0.00,meteohub,2013-02-14 06:41:00,
2013-02-14 01:46:00,30.9,28.6,29.75,NNW,339,0.0,2.0,91,0.00,,,0.00,meteohub,2013-02-14 06:46:00,
2013-02-14 01:51:00,30.9,28.6,29.75,NNW,339,0.0,2.0,91,0.00,,,0.00,meteohub,2013-02-14 06:51:00,
2013-02-14 01:56:00,30.7,28.4,29.76,NNW,339,0.0,0.0,91,0.00,,,0.00,meteohub,2013-02-14 06:56:00,
2013-02-14 02:01:00,30.7,28.4,29.76,NNW,339,0.0,0.0,91,0.00,,,0.00,meteohub,2013-02-14 07:01:00,
2013-02-14 02:06:00,30.6,28.2,29.76,NNW,339,0.0,0.0,91,0.00,,,0.00,meteohub,2013-02-14 07:06:00,
2013-02-14 02:11:00,30.6,28.2,29.77,NNW,339,0.0,0.0,91,0.00,,,0.00,meteohub,2013-02-14 07:11:00,
2013-02-14 02:16:00,30.4,28.0,29.77,NNW,339,0.0,0.0,91,0.00,,,0.00,meteohub,2013-02-14 07:16:00,
2013-02-14 02:21:00,30.0,27.7,29.77,NNW,339,0.0,0.0,91,0.00,,,0.00,meteohub,2013-02-14 07:21:00,
2013-02-14 02:26:00,30.0,27.7,29.77,NNW,339,0.0,0.0,91,0.00,,,0.00,meteohub,2013-02-14 07:26:00,
2013-02-14 02:31:00,29.8,27.5,29.77,NNW,339,0.0,0.0,91,0.00,,,0.00,meteohub,2013-02-14 07:31:00,
2013-02-14 02:36:00,29.7,27.3,29.78,NNW,339,0.0,0.0,91,0.00,,,0.00,meteohub,2013-02-14 07:36:00,
2013-02-14 02:41:00,29.5,27.1,29.78,NNW,339,0.0,0.0,91,0.00,,,0.00,meteohub,2013-02-14 07:41:00,
2013-02-14 02:46:00,29.3,27.3,29.78,NNW,339,0.0,2.0,92,0.00,,,0.00,meteohub,2013-02-14 07:46:00,
2013-02-14 02:51:00,29.3,27.3,29.78,NNW,339,0.0,2.0,92,0.00,,,0.00,meteohub,2013-02-14 07:51:00,
2013-02-14 02:56:00,29.5,27.5,29.78,NNW,339,0.0,2.0,92,0.00,,,0.00,meteohub,2013-02-14 07:56:00,
2013-02-14 03:01:00,29.5,27.7,29.78,NNW,339,0.0,1.0,93,0.00,,,0.00,meteohub,2013-02-14 08:01:00,
2013-02-14 03:06:00,29.5,27.7,29.78,NNW,339,0.0,0.0,93,0.00,,,0.00,meteohub,2013-02-14 08:06:00,
2013-02-14 03:11:00,29.5,27.7,29.78,NNW,339,0.0,0.0,93,0.00,,,0.00,meteohub,2013-02-14 08:11:00,
2013-02-14 03:16:00,29.7,27.9,29.78,NNW,339,0.0,0.0,93,0.00,,,0.00,meteohub,2013-02-14 08:16:00,
2013-02-14 03:21:00,29.7,27.9,29.79,NNW,339,0.0,0.0,93,0.00,,,0.00,meteohub,2013-02-14 08:21:00,
2013-02-14 03:26:00,29.7,27.9,29.79,NNW,339,0.0,0.0,93,0.00,,,0.00,meteohub,2013-02-14 08:26:00,
2013-02-14 03:31:00,29.7,27.9,29.79,NNW,339,0.0,0.0,93,0.00,,,0.00,meteohub,2013-02-14 08:31:00,
2013-02-14 03:36:00,29.8,28.0,29.79,NNW,339,0.0,0.0,93,0.00,,,0.00,meteohub,2013-02-14 08:36:00,
2013-02-14 03:41:00,29.8,28.0,29.79,NNW,339,0.0,0.0,93,0.00,,,0.00,meteohub,2013-02-14 08:41:00,
2013-02-14 03:46:00,29.8,27.9,29.79,NNW,339,0.0,0.0,92,0.00,,,0.00,meteohub,2013-02-14 08:46:00,
2013-02-14 03:51:00,29.7,27.7,29.79,NNW,339,0.0,0.0,92,0.00,,,0.00,meteohub,2013-02-14 08:51:00,
2013-02-14 03:56:00,29.7,27.7,29.79,NNW,339,0.0,0.0,92,0.00,,,0.00,meteohub,2013-02-14 08:56:00,
2013-02-14 04:01:00,29.5,27.1,29.79,NNW,339,0.0,0.0,91,0.00,,,0.00,meteohub,2013-02-14 09:01:00,
2013-02-14 04:06:00,29.1,26.8,29.80,NNW,339,0.0,0.0,91,0.00,,,0.00,meteohub,2013-02-14 09:06:00,
2013-02-14 04:11:00,29.1,27.1,29.80,NNW,339,0.0,0.0,92,0.00,,,0.00,meteohub,2013-02-14 09:11:00,
2013-02-14 04:16:00,29.1,27.1,29.81,NNW,339,0.0,1.0,92,0.00,,,0.00,meteohub,2013-02-14 09:16:00,
2013-02-14 04:21:00,28.9,27.0,29.81,NNW,339,0.0,1.0,92,0.00,,,0.00,meteohub,2013-02-14 09:21:00,
2013-02-14 04:26:00,28.9,27.0,29.81,NNW,339,0.0,1.0,92,0.00,,,0.00,meteohub,2013-02-14 09:26:00,
2013-02-14 04:31:00,28.8,26.8,29.81,NNW,339,0.0,1.0,92,0.00,,,0.00,meteohub,2013-02-14 09:31:00,
2013-02-14 04:36:00,28.8,26.8,29.81,NNW,339,0.0,0.0,92,0.00,,,0.00,meteohub,2013-02-14 09:36:00,
2013-02-14 04:41:00,28.6,26.2,29.81,NNW,339,0.0,1.0,91,0.00,,,0.00,meteohub,2013-02-14 09:41:00,
2013-02-14 04:46:00,28.6,26.2,29.81,NNW,339,0.0,1.0,91,0.00,,,0.00,meteohub,2013-02-14 09:46:00,
2013-02-14 04:51:00,28.2,26.2,29.81,NNW,339,0.0,1.0,92,0.00,,,0.00,meteohub,2013-02-14 09:51:00,
2013-02-14 04:56:00,28.0,25.7,29.81,NNW,339,0.0,0.0,91,0.00,,,0.00,meteohub,2013-02-14 09:56:00,
2013-02-14 05:01:00,27.9,25.5,29.81,NNW,339,0.0,1.0,91,0.00,,,0.00,meteohub,2013-02-14 10:01:00,
2013-02-14 05:06:00,27.9,25.9,29.81,NNW,339,0.0,2.0,92,0.00,,,0.00,meteohub,2013-02-14 10:06:00,
2013-02-14 05:11:00,27.9,25.9,29.81,NNW,339,0.0,2.0,92,0.00,,,0.00,meteohub,2013-02-14 10:11:00,
2013-02-14 05:16:00,27.7,25.3,29.81,NNW,339,0.0,2.0,91,0.00,,,0.00,meteohub,2013-02-14 10:16:00,
2013-02-14 05:21:00,27.5,25.5,29.81,NNW,339,0.0,0.0,92,0.00,,,0.00,meteohub,2013-02-14 10:21:00,
2013-02-14 05:26:00,27.3,25.3,29.81,NNW,339,0.0,0.0,92,0.00,,,0.00,meteohub,2013-02-14 10:26:00,
2013-02-14 05:31:00,27.1,25.2,29.82,NNW,339,0.0,0.0,92,0.00,,,0.00,meteohub,2013-02-14 10:31:00,
2013-02-14 05:36:00,27.1,25.2,29.82,NNW,339,0.0,1.0,92,0.00,,,0.00,meteohub,2013-02-14 10:36:00,
2013-02-14 05:41:00,27.1,25.2,29.83,NNW,339,0.0,1.0,92,0.00,,,0.00,meteohub,2013-02-14 10:41:00,
2013-02-14 05:46:00,27.0,25.0,29.83,NNW,339,0.0,1.0,92,0.00,,,0.00,meteohub,2013-02-14 10:46:00,
2013-02-14 05:51:00,27.0,25.0,29.83,NNW,339,0.0,0.0,92,0.00,,,0.00,meteohub,2013-02-14 10:51:00,
2013-02-14 05:56:00,27.0,25.0,29.82,NNW,339,0.0,0.0,92,0.00,,,0.00,meteohub,2013-02-14 10:56:00,
2013-02-14 06:01:00,27.0,25.0,29.83,WNW,301,1.0,1.0,92,0.00,,,0.00,meteohub,2013-02-14 11:01:00,
2013-02-14 06:07:00,27.0,25.0,29.83,WNW,301,0.0,2.0,92,0.00,,,0.00,meteohub,2013-02-14 11:07:00,
2013-02-14 06:12:00,26.8,24.8,29.83,WNW,301,0.0,2.0,92,0.00,,,0.00,meteohub,2013-02-14 11:12:00,
2013-02-14 06:17:00,26.8,24.8,29.84,WNW,301,0.0,2.0,92,0.00,,,0.00,meteohub,2013-02-14 11:17:00,
2013-02-14 06:22:00,26.8,24.8,29.84,WNW,301,0.0,0.0,92,0.00,,,0.00,meteohub,2013-02-14 11:22:00,
2013-02-14 06:27:00,26.8,24.8,29.85,WNW,301,0.0,1.0,92,0.00,,,0.00,meteohub,2013-02-14 11:27:00,
2013-02-14 06:32:00,26.6,24.6,29.85,WNW,301,0.0,1.0,92,0.00,,,0.00,meteohub,2013-02-14 11:32:00,
2013-02-14 06:37:00,26.4,24.4,29.85,WNW,301,0.0,0.0,92,0.00,,,0.00,meteohub,2013-02-14 11:37:00,
2013-02-14 06:42:00,26.4,24.4,29.85,WNW,301,0.0,0.0,92,0.00,,,0.00,meteohub,2013-02-14 11:42:00,
2013-02-14 06:47:00,26.4,24.4,29.85,WNW,301,0.0,0.0,92,0.00,,,0.00,meteohub,2013-02-14 11:47:00,
2013-02-14 06:52:00,26.4,24.4,29.86,WNW,301,0.0,1.0,92,0.00,,,0.00,meteohub,2013-02-14 11:52:00,
2013-02-14 06:57:00,26.4,24.1,29.86,WNW,301,0.0,2.0,91,0.00,,,0.00,meteohub,2013-02-14 11:57:00,
2013-02-14 07:02:00,26.2,24.3,29.86,WNW,301,0.0,2.0,92,0.00,,,0.00,meteohub,2013-02-14 12:02:00,
2013-02-14 07:07:00,26.2,23.9,29.86,WNW,301,0.0,2.0,91,0.00,,,0.00,meteohub,2013-02-14 12:07:00,
2013-02-14 07:12:00,26.2,23.9,29.87,WNW,301,0.0,1.0,91,0.00,,,0.00,meteohub,2013-02-14 12:12:00,
2013-02-14 07:17:00,26.2,23.9,29.87,WNW,301,0.0,1.0,91,0.00,,,0.00,meteohub,2013-02-14 12:17:00,
2013-02-14 07:22:00,26.2,23.9,29.87,WNW,301,0.0,1.0,91,0.00,,,0.00,meteohub,2013-02-14 12:22:00,
2013-02-14 07:27:00,26.2,23.9,29.88,WNW,301,0.0,0.0,91,0.00,,,0.00,meteohub,2013-02-14 12:27:00,
2013-02-14 07:32:00,26.4,24.1,29.88,WNW,301,0.0,0.0,91,0.00,,,0.00,meteohub,2013-02-14 12:32:00,
2013-02-14 07:37:00,26.6,24.3,29.89,WNW,301,0.0,0.0,91,0.00,,,0.00,meteohub,2013-02-14 12:37:00,
2013-02-14 07:42:00,26.8,24.4,29.89,WNW,301,0.0,1.0,91,0.00,,,0.00,meteohub,2013-02-14 12:42:00,
2013-02-14 07:47:00,27.0,24.6,29.90,WNW,301,0.0,1.0,91,0.00,,,0.00,meteohub,2013-02-14 12:47:00,
2013-02-14 07:52:00,27.1,24.6,29.90,WNW,301,0.0,1.0,90,0.00,,,0.00,meteohub,2013-02-14 12:52:00,
2013-02-14 07:57:00,27.3,24.8,29.90,WNW,301,0.0,1.0,90,0.00,,,0.00,meteohub,2013-02-14 12:57:00,
2013-02-14 08:02:00,27.7,25.2,29.90,WNW,301,0.0,1.0,90,0.00,,,0.00,meteohub,2013-02-14 13:02:00,
2013-02-14 08:07:00,28.0,25.2,29.90,WNW,301,0.0,0.0,89,0.00,,,0.00,meteohub,2013-02-14 13:07:00,
2013-02-14 08:12:00,28.8,25.7,29.91,North,0,0.0,3.0,88,0.00,,,0.00,meteohub,2013-02-14 13:12:00,
2013-02-14 08:17:00,29.3,25.9,29.91,North,0,0.0,3.0,87,0.00,,,0.00,meteohub,2013-02-14 13:17:00,
2013-02-14 08:22:00,29.7,26.1,29.91,North,0,0.0,3.0,86,0.00,,,0.00,meteohub,2013-02-14 13:22:00,
2013-02-14 08:27:00,29.8,25.9,29.92,North,350,0.0,3.0,85,0.00,,,0.00,meteohub,2013-02-14 13:27:00,
2013-02-14 08:32:00,30.4,26.1,29.92,NNW,348,0.0,1.0,84,0.00,,,0.00,meteohub,2013-02-14 13:32:00,
2013-02-14 08:37:00,30.7,26.2,29.92,North,0,0.0,2.0,83,0.00,,,0.00,meteohub,2013-02-14 13:37:00,
2013-02-14 08:42:00,31.1,26.2,29.92,NNW,344,1.0,3.0,82,0.00,,,0.00,meteohub,2013-02-14 13:42:00,
2013-02-14 08:47:00,31.5,26.2,29.92,NW,304,0.0,3.0,81,0.00,,,0.00,meteohub,2013-02-14 13:47:00,
2013-02-14 08:52:00,31.8,26.4,29.92,NW,305,0.0,3.0,80,0.00,,,0.00,meteohub,2013-02-14 13:52:00,
2013-02-14 08:57:00,32.2,26.8,29.93,NW,305,0.0,3.0,80,0.00,,,0.00,meteohub,2013-02-14 13:57:00,
2013-02-14 09:02:00,32.5,26.4,29.93,NW,325,1.0,2.0,78,0.00,,,0.00,meteohub,2013-02-14 14:02:00,
2013-02-14 09:07:00,33.1,26.4,29.92,North,10,0.0,5.0,76,0.00,,,0.00,meteohub,2013-02-14 14:07:00,
2013-02-14 09:13:00,33.4,26.8,29.93,North,351,0.0,5.0,76,0.00,,,0.00,meteohub,2013-02-14 14:13:00,
2013-02-14 09:18:00,34.2,27.3,29.93,North,351,0.0,5.0,76,0.00,,,0.00,meteohub,2013-02-14 14:18:00,
2013-02-14 09:23:00,34.5,26.8,29.93,NNE,15,0.0,4.0,73,0.00,,,0.00,meteohub,2013-02-14 14:23:00,
2013-02-14 09:28:00,35.1,27.7,29.93,NW,308,0.0,4.0,74,0.00,,,0.00,meteohub,2013-02-14 14:28:00,
2013-02-14 09:33:00,35.4,27.3,29.93,NE,42,2.0,4.0,72,0.01,,,0.01,meteohub,2013-02-14 14:33:00,
2013-02-14 09:38:00,36.0,27.5,29.94,NW,315,0.0,4.0,71,0.01,,,0.01,meteohub,2013-02-14 14:38:00,
2013-02-14 09:43:00,36.5,28.0,29.94,NW,305,0.0,2.0,71,0.01,,,0.01,meteohub,2013-02-14 14:43:00,
2013-02-14 09:48:00,37.0,28.6,29.94,NW,306,0.0,2.0,71,0.01,,,0.01,meteohub,2013-02-14 14:48:00,
2013-02-14 09:53:00,37.2,27.7,29.94,SW,228,0.0,2.0,68,0.01,,,0.01,meteohub,2013-02-14 14:53:00,
2013-02-14 09:58:00,37.6,27.3,29.94,NNE,30,0.0,2.0,66,0.01,,,0.01,meteohub,2013-02-14 14:58:00,
2013-02-14 10:03:00,37.9,27.7,29.94,North,5,0.0,2.0,66,0.01,,,0.01,meteohub,2013-02-14 15:03:00,
2013-02-14 10:08:00,38.1,27.9,29.94,North,5,0.0,3.0,66,0.01,,,0.01,meteohub,2013-02-14 15:08:00,
2013-02-14 10:13:00,38.7,27.9,29.94,ENE,73,1.0,3.0,65,0.02,,,0.02,meteohub,2013-02-14 15:13:00,
2013-02-14 10:18:00,38.8,26.6,29.94,NNE,23,0.0,3.0,61,0.02,,,0.02,meteohub,2013-02-14 15:18:00,
2013-02-14 10:23:00,38.8,26.6,29.94,NNE,17,1.0,5.0,61,0.02,,,0.02,meteohub,2013-02-14 15:23:00,
2013-02-14 10:28:00,39.0,27.5,29.94,WNW,296,0.0,8.0,63,0.01,,,0.02,meteohub,2013-02-14 15:28:00,
2013-02-14 10:33:00,39.7,27.3,29.94,North,11,0.0,8.0,61,0.01,,,0.02,meteohub,2013-02-14 15:33:00,
2013-02-14 10:38:00,40.5,27.3,29.94,NE,40,1.0,4.0,59,0.01,,,0.02,meteohub,2013-02-14 15:38:00,
2013-02-14 10:43:00,40.6,27.0,29.94,NNW,329,2.0,4.0,58,0.01,,,0.02,meteohub,2013-02-14 15:43:00,
2013-02-14 10:48:00,41.4,28.6,29.95,NNE,12,3.0,6.0,60,0.01,,,0.02,meteohub,2013-02-14 15:48:00,
2013-02-14 10:53:00,41.5,27.5,29.95,WNW,289,2.0,6.0,57,0.01,,,0.02,meteohub,2013-02-14 15:53:00,
2013-02-14 10:58:00,41.9,28.2,29.95,West,274,0.0,6.0,58,0.01,,,0.02,meteohub,2013-02-14 15:58:00,
2013-02-14 11:03:00,42.1,27.1,29.94,North,0,2.0,5.0,55,0.01,,,0.02,meteohub,2013-02-14 16:03:00,
2013-02-14 11:08:00,41.7,26.2,29.94,North,0,0.0,5.0,54,0.00,,,0.02,meteohub,2013-02-14 16:08:00,
2013-02-14 11:13:00,41.7,27.7,29.94,WNW,289,0.0,6.0,57,0.00,,,0.02,meteohub,2013-02-14 16:13:00,
2013-02-14 11:18:00,42.1,25.3,29.94,WNW,286,1.0,6.0,51,0.00,,,0.02,meteohub,2013-02-14 16:18:00,
2013-02-14 11:23:00,42.4,26.6,29.95,NW,319,0.0,6.0,53,0.00,,,0.02,meteohub,2013-02-14 16:23:00,
2013-02-14 11:28:00,42.8,25.5,29.94,NNE,28,3.0,6.0,50,0.00,,,0.02,meteohub,2013-02-14 16:28:00,
2013-02-14 11:33:00,43.0,27.0,29.94,NW,323,1.0,6.0,53,0.00,,,0.02,meteohub,2013-02-14 16:33:00,
2013-02-14 11:38:00,43.7,27.7,29.94,WNW,291,1.0,5.0,53,0.00,,,0.02,meteohub,2013-02-14 16:38:00,
2013-02-14 11:43:00,43.7,26.2,29.94,NE,37,0.0,5.0,50,0.00,,,0.02,meteohub,2013-02-14 16:43:00,
2013-02-14 11:48:00,43.5,28.0,29.94,WNW,292,0.0,4.0,54,0.00,,,0.02,meteohub,2013-02-14 16:48:00,
2013-02-14 11:53:00,43.7,27.1,29.94,NW,315,0.0,4.0,52,0.00,,,0.02,meteohub,2013-02-14 16:53:00,
2013-02-14 11:58:00,43.5,27.5,29.94,WNW,286,0.0,4.0,53,0.00,,,0.02,meteohub,2013-02-14 16:58:00,
2013-02-14 12:03:00,43.9,27.3,29.94,WNW,282,1.0,4.0,52,0.00,,,0.02,meteohub,2013-02-14 17:03:00,
2013-02-14 12:09:00,44.2,28.2,29.94,WNW,287,0.0,3.0,53,0.00,,,0.02,meteohub,2013-02-14 17:09:00,
2013-02-14 12:14:00,44.2,27.7,29.94,South,179,0.0,4.0,52,0.00,,,0.02,meteohub,2013-02-14 17:14:00,
2013-02-14 12:19:00,44.1,27.1,29.94,SW,228,3.0,5.0,51,0.00,,,0.02,meteohub,2013-02-14 17:19:00,
2013-02-14 12:24:00,44.2,27.3,29.93,WSW,242,2.0,5.0,51,0.00,,,0.02,meteohub,2013-02-14 17:24:00,
2013-02-14 12:29:00,44.6,27.5,29.93,West,279,0.0,5.0,51,0.00,,,0.02,meteohub,2013-02-14 17:29:00,
2013-02-14 12:34:00,45.0,27.9,29.93,North,5,3.0,4.0,51,0.00,,,0.02,meteohub,2013-02-14 17:34:00,
2013-02-14 12:39:00,44.6,26.6,29.93,NNW,333,1.0,4.0,49,0.00,,,0.02,meteohub,2013-02-14 17:39:00,
2013-02-14 12:44:00,43.5,26.1,29.93,NE,46,2.0,4.0,50,0.00,,,0.02,meteohub,2013-02-14 17:44:00,
2013-02-14 12:49:00,42.6,25.7,29.93,North,11,0.0,5.0,51,0.00,,,0.02,meteohub,2013-02-14 17:49:00,
2013-02-14 12:54:00,42.6,26.2,29.93,North,11,2.0,5.0,52,0.00,,,0.02,meteohub,2013-02-14 17:54:00,
2013-02-14 12:59:00,43.0,27.0,29.93,North,0,2.0,5.0,53,0.00,,,0.02,meteohub,2013-02-14 17:59:00,
2013-02-14 13:04:00,43.5,26.6,29.93,North,9,1.0,5.0,51,0.00,,,0.02,meteohub,2013-02-14 18:04:00,
2013-02-14 13:09:00,43.7,26.2,29.93,NNW,347,3.0,4.0,50,0.00,,,0.02,meteohub,2013-02-14 18:09:00,
2013-02-14 13:14:00,44.1,27.1,29.93,NNW,337,0.0,5.0,51,0.00,,,0.02,meteohub,2013-02-14 18:14:00,
2013-02-14 13:19:00,44.8,26.2,29.93,SSE,160,3.0,5.0,48,0.00,,,0.02,meteohub,2013-02-14 18:19:00,
2013-02-14 13:24:00,45.3,26.2,29.92,South,169,0.0,5.0,47,0.00,,,0.02,meteohub,2013-02-14 18:24:00,
2013-02-14 13:29:00,45.5,25.9,29.92,NNW,329,2.0,3.0,46,0.00,,,0.02,meteohub,2013-02-14 18:29:00,
2013-02-14 13:34:00,45.3,26.8,29.92,West,281,1.0,3.0,48,0.00,,,0.02,meteohub,2013-02-14 18:34:00,
2013-02-14 13:39:00,45.9,27.3,29.92,West,259,0.0,4.0,48,0.00,,,0.02,meteohub,2013-02-14 18:39:00,
2013-02-14 13:44:00,46.6,27.5,29.92,WNW,282,0.0,4.0,47,0.00,,,0.02,meteohub,2013-02-14 18:44:00,
2013-02-14 13:49:00,46.9,26.2,29.92,WSW,255,1.0,3.0,44,0.00,,,0.02,meteohub,2013-02-14 18:49:00,
2013-02-14 13:54:00,46.8,27.1,29.93,WSW,240,0.0,3.0,46,0.00,,,0.02,meteohub,2013-02-14 18:54:00,
2013-02-14 13:59:00,46.9,26.8,29.93,WSW,239,1.0,4.0,45,0.00,,,0.02,meteohub,2013-02-14 18:59:00,
2013-02-14 14:04:00,46.8,25.5,29.93,SSW,211,1.0,4.0,43,0.00,,,0.02,meteohub,2013-02-14 19:04:00,
2013-02-14 14:09:00,46.4,25.7,29.93,West,276,1.0,5.0,44,0.00,,,0.02,meteohub,2013-02-14 19:09:00,
2013-02-14 14:14:00,46.0,26.4,29.94,West,259,1.0,5.0,46,0.00,,,0.02,meteohub,2013-02-14 19:14:00,
2013-02-14 14:19:00,46.2,26.1,29.94,West,261,1.0,7.0,45,0.00,,,0.02,meteohub,2013-02-14 19:19:00,
2013-02-14 14:24:00,46.8,27.1,29.94,West,279,1.0,7.0,46,0.00,,,0.02,meteohub,2013-02-14 19:24:00,
2013-02-14 14:29:00,47.5,26.6,29.94,West,279,1.0,7.0,44,0.00,,,0.02,meteohub,2013-02-14 19:29:00,
2013-02-14 14:34:00,47.1,25.2,29.94,NE,42,3.0,3.0,42,0.00,,,0.02,meteohub,2013-02-14 19:34:00,
2013-02-14 14:39:00,46.0,24.8,29.94,NE,45,0.0,2.0,43,0.00,,,0.02,meteohub,2013-02-14 19:39:00,
2013-02-14 14:44:00,45.9,25.7,29.94,WSW,246,3.0,5.0,45,0.00,,,0.02,meteohub,2013-02-14 19:44:00,
2013-02-14 14:49:00,46.0,25.9,29.93,WNW,295,1.0,5.0,45,0.00,,,0.02,meteohub,2013-02-14 19:49:00,
2013-02-14 14:54:00,46.0,25.9,29.93,NNW,347,0.0,5.0,45,0.00,,,0.02,meteohub,2013-02-14 19:54:00,
2013-02-14 14:59:00,46.6,25.9,29.94,WSW,246,1.0,5.0,44,0.00,,,0.02,meteohub,2013-02-14 19:59:00,
2013-02-14 15:04:00,46.8,24.8,29.94,SSE,165,0.0,3.0,42,0.00,,,0.02,meteohub,2013-02-14 20:04:00,
2013-02-14 15:09:00,46.9,25.5,29.94,SW,223,0.0,6.0,43,0.00,,,0.02,meteohub,2013-02-14 20:09:00,
2013-02-14 15:14:00,47.1,25.2,29.94,SW,234,3.0,6.0,42,0.00,,,0.02,meteohub,2013-02-14 20:14:00,
2013-02-14 15:19:00,47.1,26.2,29.94,WSW,250,0.0,6.0,44,0.00,,,0.02,meteohub,2013-02-14 20:19:00,
2013-02-14 15:24:00,46.9,26.2,29.94,SW,231,0.0,5.0,44,0.00,,,0.02,meteohub,2013-02-14 20:24:00,
2013-02-14 15:29:00,46.6,25.9,29.95,SW,223,2.0,6.0,44,0.00,,,0.02,meteohub,2013-02-14 20:29:00,
2013-02-14 15:34:00,46.2,25.5,29.95,SW,236,2.0,7.0,44,0.00,,,0.02,meteohub,2013-02-14 20:34:00,
2013-02-14 15:39:00,46.0,25.9,29.95,West,261,0.0,7.0,45,0.00,,,0.02,meteohub,2013-02-14 20:39:00,
2013-02-14 15:44:00,46.0,26.4,29.94,West,262,2.0,7.0,46,0.00,,,0.02,meteohub,2013-02-14 20:44:00,
2013-02-14 15:49:00,46.0,25.3,29.94,West,271,1.0,5.0,44,0.00,,,0.02,meteohub,2013-02-14 20:49:00,
2013-02-14 15:54:00,45.9,25.2,29.94,West,277,3.0,6.0,44,0.00,,,0.02,meteohub,2013-02-14 20:54:00,
2013-02-14 15:59:00,45.5,24.8,29.95,WSW,237,1.0,6.0,44,0.00,,,0.02,meteohub,2013-02-14 20:59:00,
2013-02-14 16:04:00,45.1,24.4,29.95,West,267,1.0,6.0,44,0.00,,,0.02,meteohub,2013-02-14 21:04:00,
2013-02-14 16:09:00,45.0,25.3,29.96,WSW,249,0.0,6.0,46,0.00,,,0.02,meteohub,2013-02-14 21:09:00,
2013-02-14 16:14:00,45.0,24.4,29.96,SW,232,2.0,4.0,44,0.00,,,0.02,meteohub,2013-02-14 21:14:00,
2013-02-14 16:19:00,44.4,23.9,29.96,West,261,0.0,4.0,44,0.00,,,0.02,meteohub,2013-02-14 21:19:00,
2013-02-14 16:24:00,44.1,24.1,29.96,WNW,286,0.0,6.0,45,0.00,,,0.02,meteohub,2013-02-14 21:24:00,
2013-02-14 16:29:00,43.5,24.1,29.96,SW,228,0.0,6.0,46,0.00,,,0.02,meteohub,2013-02-14 21:29:00,
2013-02-14 16:34:00,43.2,24.3,29.96,WSW,254,0.0,6.0,47,0.00,,,0.02,meteohub,2013-02-14 21:34:00,
2013-02-14 16:39:00,43.0,24.1,29.96,SW,221,0.0,7.0,47,0.00,,,0.02,meteohub,2013-02-14 21:39:00,
2013-02-14 16:44:00,42.6,24.8,29.95,SW,232,2.0,7.0,49,0.00,,,0.02,meteohub,2013-02-14 21:44:00,
2013-02-14 16:49:00,42.3,25.0,29.96,SSW,204,0.0,7.0,50,0.00,,,0.02,meteohub,2013-02-14 21:49:00,
2013-02-14 16:54:00,42.1,24.8,29.96,SSW,204,0.0,6.0,50,0.00,,,0.02,meteohub,2013-02-14 21:54:00,
2013-02-14 16:59:00,41.7,25.0,29.96,SSW,204,1.0,3.0,51,0.00,,,0.02,meteohub,2013-02-14 21:59:00,
2013-02-14 17:04:00,41.5,24.3,29.96,SSW,211,0.0,2.0,50,0.00,,,0.02,meteohub,2013-02-14 22:04:00,
2013-02-14 17:09:00,41.2,24.8,29.97,SSW,211,0.0,2.0,52,0.00,,,0.02,meteohub,2013-02-14 22:09:00,
2013-02-14 17:14:00,40.8,25.0,29.97,SSW,211,0.0,2.0,53,0.00,,,0.02,meteohub,2013-02-14 22:14:00,
2013-02-14 17:19:00,40.5,24.6,29.97,SSW,211,0.0,2.0,53,0.00,,,0.02,meteohub,2013-02-14 22:19:00,
2013-02-14 17:24:00,40.3,24.4,29.97,SSW,211,0.0,1.0,53,0.00,,,0.02,meteohub,2013-02-14 22:24:00,
2013-02-14 17:29:00,39.9,24.6,29.98,SSW,211,0.0,1.0,54,0.00,,,0.02,meteohub,2013-02-14 22:29:00,
2013-02-14 17:34:00,39.7,24.4,29.98,SSW,211,0.0,1.0,54,0.00,,,0.02,meteohub,2013-02-14 22:34:00,
2013-02-14 17:39:00,39.6,24.3,29.98,SSW,211,0.0,1.0,54,0.00,,,0.02,meteohub,2013-02-14 22:39:00,
2013-02-14 17:44:00,39.2,23.9,29.98,SSW,211,0.0,1.0,54,0.00,,,0.02,meteohub,2013-02-14 22:44:00,
2013-02-14 17:49:00,39.0,24.3,29.98,SSW,211,0.0,0.0,55,0.00,,,0.02,meteohub,2013-02-14 22:49:00,
2013-02-14 17:54:00,38.7,24.8,29.99,SSW,211,0.0,0.0,57,0.00,,,0.02,meteohub,2013-02-14 22:54:00,
2013-02-14 17:59:00,38.3,23.9,29.99,SSW,211,0.0,0.0,56,0.00,,,0.02,meteohub,2013-02-14 22:59:00,
2013-02-14 18:04:00,37.9,24.1,29.99,SSW,211,0.0,1.0,57,0.00,,,0.02,meteohub,2013-02-14 23:04:00,
2013-02-14 18:09:00,37.8,24.3,29.99,SSW,211,0.0,1.0,58,0.00,,,0.02,meteohub,2013-02-14 23:09:00,
2013-02-14 18:14:00,37.2,24.6,29.99,SSW,211,0.0,2.0,60,0.00,,,0.02,meteohub,2013-02-14 23:14:00,
2013-02-14 18:19:00,36.9,24.3,29.99,SSW,211,0.0,2.0,60,0.00,,,0.02,meteohub,2013-02-14 23:19:00,
2013-02-14 18:24:00,36.5,24.3,29.99,SSW,211,0.0,2.0,61,0.00,,,0.02,meteohub,2013-02-14 23:24:00,
2013-02-14 18:29:00,36.1,24.8,29.99,SSW,211,1.0,2.0,63,0.00,,,0.02,meteohub,2013-02-14 23:29:00,
2013-02-14 18:34:00,35.8,24.8,29.99,SSW,211,0.0,2.0,64,0.00,,,0.02,meteohub,2013-02-14 23:34:00,
2013-02-14 18:39:00,35.2,24.6,29.99,SSW,211,1.0,2.0,65,0.00,,,0.02,meteohub,2013-02-14 23:39:00,
2013-02-14 18:44:00,35.1,24.8,29.99,SSW,211,0.0,1.0,66,0.00,,,0.02,meteohub,2013-02-14 23:44:00,
2013-02-14 18:49:00,34.7,24.4,29.99,SSW,211,0.0,2.0,66,0.00,,,0.02,meteohub,2013-02-14 23:49:00,
2013-02-14 18:54:00,34.3,24.4,29.99,SSW,211,0.0,2.0,67,0.00,,,0.02,meteohub,2013-02-14 23:54:00,
2013-02-14 18:59:00,34.2,24.6,29.99,SSW,211,0.0,2.0,68,0.00,,,0.02,meteohub,2013-02-14 23:59:00,
2013-02-14 19:04:00,33.6,24.6,30.00,SSW,211,0.0,2.0,69,0.00,,,0.02,meteohub,2013-02-15 00:04:00,
2013-02-14 19:09:00,33.4,24.4,30.00,SSW,211,0.0,2.0,69,0.00,,,0.02,meteohub,2013-02-15 00:09:00,
2013-02-14 19:14:00,33.3,24.6,30.00,SSW,211,0.0,2.0,70,0.00,,,0.02,meteohub,2013-02-15 00:14:00,
2013-02-14 19:19:00,33.3,24.6,30.00,SSW,211,0.0,2.0,70,0.00,,,0.02,meteohub,2013-02-15 00:19:00,
2013-02-14 19:24:00,32.7,24.6,30.00,SSW,211,0.0,2.0,72,0.00,,,0.02,meteohub,2013-02-15 00:24:00,
2013-02-14 19:29:00,32.5,24.4,30.00,SSW,211,0.0,2.0,72,0.00,,,0.02,meteohub,2013-02-15 00:29:00,
2013-02-14 19:34:00,32.4,24.6,30.00,SSW,211,0.0,2.0,73,0.00,,,0.02,meteohub,2013-02-15 00:34:00,
2013-02-14 19:39:00,32.4,24.6,30.00,SSW,211,0.0,1.0,73,0.00,,,0.02,meteohub,2013-02-15 00:39:00,
2013-02-14 19:44:00,32.2,24.4,30.01,SSW,211,0.0,1.0,73,0.00,,,0.02,meteohub,2013-02-15 00:44:00,
2013-02-14 19:49:00,31.8,24.4,30.00,SSW,211,1.0,0.0,74,0.00,,,0.02,meteohub,2013-02-15 00:49:00,
2013-02-14 19:54:00,31.6,24.6,30.00,SSW,211,0.0,1.0,75,0.00,,,0.02,meteohub,2013-02-15 00:54:00,
2013-02-14 19:59:00,31.3,24.3,30.00,SSW,211,0.0,2.0,75,0.00,,,0.02,meteohub,2013-02-15 00:59:00,
2013-02-14 20:04:00,31.1,24.1,30.00,SSW,211,0.0,2.0,75,0.00,,,0.02,meteohub,2013-02-15 01:04:00,
2013-02-14 20:09:00,31.1,24.4,30.00,SSW,211,0.0,1.0,76,0.00,,,0.02,meteohub,2013-02-15 01:09:00,
2013-02-14 20:14:00,30.9,24.3,30.00,SSW,211,0.0,1.0,76,0.00,,,0.02,meteohub,2013-02-15 01:14:00,
2013-02-14 20:19:00,30.7,24.4,30.00,SSW,211,2.0,2.0,77,0.00,,,0.02,meteohub,2013-02-15 01:19:00,
2013-02-14 20:24:00,30.6,23.9,30.00,SSW,211,1.0,2.0,76,0.00,,,0.02,meteohub,2013-02-15 01:24:00,
2013-02-14 20:29:00,30.4,23.7,30.00,SSW,211,0.0,2.0,76,0.00,,,0.02,meteohub,2013-02-15 01:29:00,
2013-02-14 20:34:00,30.4,24.1,30.00,SSW,211,0.0,2.0,77,0.00,,,0.02,meteohub,2013-02-15 01:34:00,
2013-02-14 20:39:00,30.4,24.1,30.00,SSW,211,0.0,2.0,77,0.00,,,0.02,meteohub,2013-02-15 01:39:00,
2013-02-14 20:44:00,30.2,24.3,30.00,SSW,211,0.0,2.0,78,0.00,,,0.02,meteohub,2013-02-15 01:44:00,
2013-02-14 20:49:00,29.8,24.1,30.01,SSW,211,0.0,1.0,79,0.00,,,0.02,meteohub,2013-02-15 01:49:00,
2013-02-14 20:54:00,29.7,24.3,30.01,SSW,211,0.0,1.0,80,0.00,,,0.02,meteohub,2013-02-15 01:54:00,
2013-02-14 20:59:00,29.5,23.7,30.01,SSW,211,0.0,1.0,79,0.00,,,0.02,meteohub,2013-02-15 01:59:00,
2013-02-14 21:04:00,29.3,23.5,30.01,SSW,211,0.0,0.0,79,0.00,,,0.02,meteohub,2013-02-15 02:04:00,
2013-02-14 21:09:00,29.3,23.9,30.01,SSW,211,0.0,0.0,80,0.00,,,0.02,meteohub,2013-02-15 02:09:00,
2013-02-14 21:14:00,29.3,23.9,30.01,SSW,211,0.0,1.0,80,0.00,,,0.02,meteohub,2013-02-15 02:14:00,
2013-02-14 21:19:00,29.5,24.4,30.01,SSW,211,0.0,1.0,81,0.00,,,0.02,meteohub,2013-02-15 02:19:00,
2013-02-14 21:24:00,29.5,24.4,30.01,SSW,211,0.0,1.0,81,0.00,,,0.02,meteohub,2013-02-15 02:24:00,
2013-02-14 21:29:00,29.5,24.4,30.01,SSW,211,0.0,0.0,81,0.00,,,0.02,meteohub,2013-02-15 02:29:00,
2013-02-14 21:34:00,29.5,24.4,30.01,SSW,211,0.0,0.0,81,0.00,,,0.02,meteohub,2013-02-15 02:34:00,
2013-02-14 21:39:00,29.5,24.4,30.01,SSW,211,0.0,0.0,81,0.00,,,0.02,meteohub,2013-02-15 02:39:00,
2013-02-14 21:44:00,29.5,24.4,30.01,SSW,211,0.0,0.0,81,0.00,,,0.02,meteohub,2013-02-15 02:44:00,
2013-02-14 21:49:00,29.5,24.6,30.01,SSW,211,0.0,0.0,82,0.00,,,0.02,meteohub,2013-02-15 02:49:00,
2013-02-14 21:54:00,29.5,24.6,30.01,SSW,211,0.0,0.0,82,0.00,,,0.02,meteohub,2013-02-15 02:54:00,
2013-02-14 21:59:00,29.7,25.2,30.01,SSW,211,0.0,0.0,83,0.00,,,0.02,meteohub,2013-02-15 02:59:00,
2013-02-14 22:04:00,29.7,25.2,30.01,SSW,211,0.0,0.0,83,0.00,,,0.02,meteohub,2013-02-15 03:04:00,
2013-02-14 22:09:00,29.7,25.2,30.01,SSW,211,0.0,0.0,83,0.00,,,0.02,meteohub,2013-02-15 03:09:00,
2013-02-14 22:15:00,29.7,25.2,30.01,SSW,211,0.0,0.0,83,0.00,,,0.02,meteohub,2013-02-15 03:15:00,
2013-02-14 22:20:00,29.7,25.2,30.01,SSW,211,0.0,0.0,83,0.00,,,0.02,meteohub,2013-02-15 03:20:00,
2013-02-14 22:25:00,29.7,25.2,30.01,SSW,211,0.0,0.0,83,0.00,,,0.02,meteohub,2013-02-15 03:25:00,
2013-02-14 22:30:00,29.7,25.2,30.02,SSW,211,0.0,0.0,83,0.00,,,0.02,meteohub,2013-02-15 03:30:00,
2013-02-14 22:35:00,29.7,25.2,30.02,SSW,211,0.0,0.0,83,0.00,,,0.02,meteohub,2013-02-15 03:35:00,
2013-02-14 22:40:00,30.0,25.5,30.01,SSW,211,0.0,0.0,83,0.00,,,0.02,meteohub,2013-02-15 03:40:00,
2013-02-14 22:45:00,30.4,25.9,30.01,SSW,211,0.0,1.0,83,0.00,,,0.02,meteohub,2013-02-15 03:45:00,
2013-02-14 22:50:00,30.6,25.7,30.01,SSW,211,0.0,1.0,82,0.00,,,0.02,meteohub,2013-02-15 03:50:00,
2013-02-14 22:55:00,30.7,25.9,30.01,SSW,211,0.0,1.0,82,0.00,,,0.02,meteohub,2013-02-15 03:55:00,
2013-02-14 23:00:00,30.9,25.7,30.01,SSW,211,0.0,0.0,81,0.00,,,0.02,meteohub,2013-02-15 04:00:00,
2013-02-14 23:05:00,31.1,25.9,30.01,SSW,211,0.0,0.0,81,0.00,,,0.02,meteohub,2013-02-15 04:05:00,
2013-02-14 23:10:00,31.1,25.9,30.01,SSW,211,0.0,0.0,81,0.00,,,0.02,meteohub,2013-02-15 04:10:00,
2013-02-14 23:15:00,31.1,25.9,30.01,SSW,211,0.0,1.0,81,0.00,,,0.02,meteohub,2013-02-15 04:15:00,
2013-02-14 23:20:00,30.9,25.7,30.01,SSW,211,0.0,1.0,81,0.00,,,0.02,meteohub,2013-02-15 04:20:00,
2013-02-14 23:25:00,30.9,25.7,30.01,SSW,211,0.0,1.0,81,0.00,,,0.02,meteohub,2013-02-15 04:25:00,
2013-02-14 23:30:00,30.9,25.7,30.01,SSW,211,0.0,0.0,81,0.00,,,0.02,meteohub,2013-02-15 04:30:00,
2013-02-14 23:35:00,30.6,25.2,30.01,SSW,211,0.0,0.0,80,0.00,,,0.02,meteohub,2013-02-15 04:35:00,
2013-02-14 23:40:00,30.0,25.0,30.01,SSW,211,0.0,0.0,81,0.00,,,0.02,meteohub,2013-02-15 04:40:00,
2013-02-14 23:45:00,29.8,25.0,30.01,SSW,211,0.0,0.0,82,0.00,,,0.02,meteohub,2013-02-15 04:45:00,
2013-02-14 23:50:00,29.5,24.6,30.01,SSW,211,0.0,0.0,82,0.00,,,0.02,meteohub,2013-02-15 04:50:00,
2013-02-14 23:55:00,29.1,24.6,30.01,SSW,211,1.0,0.0,83,0.00,,,0.02,meteohub,2013-02-15 04:55:00,